Las Vegas, NM

5:47 AM MDT on October 17, 2017 (GMT -0600)
Las Vegas Municipal

Weather History for KLVS - January, 2014

Change the Weather History Date:

Thursday, January 30, 2014

  Actual Average Record
Temperature  
Mean Temperature 51 °F -  
Max Temperature 61 °F 46 °F 67 °F (1971)
Min Temperature 41 °F 19 °F -13 °F (1949)
Degree Days  
Heating Degree Days 14    
Growing Degree Days 1 (Base 50)    
Moisture  
Dew Point 23 °F    
Average Humidity 32    
Maximum Humidity 44    
Minimum Humidity 24    
Precipitation  
Precipitation 0.00 in - - ()
Sea Level Pressure  
Sea Level Pressure 29.53 in    
Wind  
Wind Speed 21 mph (West)    
Max Wind Speed 41 mph    
Max Gust Speed 52 mph    
Visibility 10 miles    
Events      
Averages and records for this station are not official NWS values.
T = Trace of Precipitation, MM = Missing Value Source: NWS Daily Summary

Daily Weather History Graph

Daily Weather History Graph

Search for Another Location

Airport or City:

Trip Planner

Search our weather history database for the weather conditions in past years. The results will help you decide how hot, cold, wet, or windy it might be!

Date:

Astronomy

Jan. 30, 2014 Rise Set
Actual Time 7:01 AM MST 5:26 PM MST
Civil Twilight 6:35 AM MST 5:53 PM MST
Nautical Twilight 6:04 AM MST 6:23 PM MST
Astronomical Twilight 5:34 AM MST 6:53 PM MST
Moon 6:31 AM MST (1/30) 5:38 PM MST (1/30)
Length of Visible Light 11h 18m
Length of Day
10h 24m
Waning Crescent, 0% of the Moon is Illuminated
Jan 30
Waning Crescent
Jan 30
New
Feb 6
First Quarter
Feb 14
Full
Feb 22
Last Quarter

Hourly Weather History & Observations

Time (MST) Temp. Windchill Dew Point Humidity Pressure Visibility Wind Dir Wind Speed Gust Speed Precip Events Conditions
12:53 AM 41.0 °F 37.1 °F 16.0 °F 36% 29.57 in 10.0 mi South 5.8 mph - N/A   Clear
1:53 AM 46.9 °F - 19.9 °F 34% 29.53 in 10.0 mi WNW 11.5 mph - N/A   Clear
2:53 AM 51.1 °F - 21.9 °F 32% 29.47 in 10.0 mi Variable 3.5 mph - N/A   Clear
3:53 AM 50.0 °F - 21.0 °F 32% 29.45 in 10.0 mi NW 11.5 mph - N/A   Clear
4:53 AM 52.0 °F - 25.0 °F 35% 29.46 in 10.0 mi WNW 39.1 mph 51.8 mph N/A   Clear
5:53 AM 51.1 °F - 25.0 °F 36% 29.52 in 10.0 mi NW 32.2 mph 47.2 mph N/A   Clear
6:53 AM 52.0 °F - 21.9 °F 31% 29.55 in 10.0 mi NW 25.3 mph 39.1 mph N/A   Clear
7:53 AM 53.1 °F - 21.0 °F 29% 29.57 in 10.0 mi West 20.7 mph 31.1 mph N/A   Clear
8:53 AM 55.0 °F - 21.9 °F 28% 29.49 in 8.0 mi West 41.4 mph 51.8 mph N/A   Clear
9:53 AM 57.0 °F - 25.0 °F 29% 29.55 in 10.0 mi West 32.2 mph 43.7 mph N/A   Clear
10:53 AM 60.1 °F - 25.0 °F 26% 29.56 in 10.0 mi West 31.1 mph 36.8 mph N/A   Clear
11:53 AM 61.0 °F - 24.1 °F 24% 29.55 in 10.0 mi West 33.4 mph 44.9 mph N/A   Clear
12:53 PM 60.1 °F - 25.0 °F 26% 29.52 in 10.0 mi West 32.2 mph 49.5 mph N/A   Clear
1:53 PM 59.0 °F - 23.0 °F 25% 29.51 in 10.0 mi West 38.0 mph 50.6 mph N/A   Clear
2:53 PM 55.9 °F - 21.9 °F 27% 29.51 in 10.0 mi WSW 34.5 mph 42.6 mph N/A   Clear
3:53 PM 55.0 °F - 21.0 °F 27% 29.55 in 10.0 mi West 31.1 mph 41.4 mph N/A   Clear
4:53 PM 53.1 °F - 21.0 °F 29% 29.54 in 10.0 mi WSW 20.7 mph 27.6 mph N/A   Clear
5:53 PM 51.1 °F - 21.0 °F 31% 29.56 in 10.0 mi WSW 16.1 mph - N/A   Clear
6:53 PM 52.0 °F - 21.0 °F 30% 29.55 in 10.0 mi WSW 20.7 mph 29.9 mph N/A   Clear
7:53 PM 50.0 °F - 21.9 °F 33% 29.55 in 10.0 mi WSW 24.2 mph 28.8 mph N/A   Clear
8:53 PM 51.1 °F - 25.0 °F 36% 29.52 in 10.0 mi WSW 29.9 mph 43.7 mph N/A   Clear
9:53 PM 50.0 °F - 26.1 °F 39% 29.53 in 10.0 mi WSW 29.9 mph 40.3 mph N/A   Clear
10:53 PM 48.9 °F - 26.1 °F 41% 29.51 in 10.0 mi WSW 25.3 mph 34.5 mph N/A   Clear
11:53 PM 48.0 °F - 27.0 °F 44% 29.50 in 10.0 mi WSW 24.2 mph 31.1 mph N/A   Clear